AA2YS Weather Reports


Display with metric or nautical units.
time (UTC)temp
F
wind
direction
speed
MPH
gust
MPH
rain 1hr
in
rain 24hr
in
rain mn
in
humidity
%
barometer
mb
20260509074519 37 0.0 0.0 0.00 0.05 0.00 84 1008.6
20260509073519 37 0.0 0.0 0.00 0.05 0.00 84 1008.7
20260509072519 37 0.0 0.0 0.00 0.05 0.00 84 1008.8
20260509071519 37 0.0 0.0 0.00 0.05 0.00 83 1008.8
20260509070628 37 0.0 0.0 0.00 0.05 0.00 83 1009.0
20260509065519 38 0.0 0.0 0.00 0.05 0.00 83 1009.0
20260509064519 38 0.0 0.0 0.00 0.05 0.00 83 1009.1
20260509063519 38 0.0 0.0 0.00 0.05 0.00 83 1009.2
20260509062539 38 0.0 0.0 0.00 0.05 0.00 83 1009.4
20260509061519 38 0.0 0.0 0.00 0.05 0.00 82 1009.4
20260509060519 39 0.0 0.0 0.00 0.05 0.00 82 1009.5
20260509055559 39 0.0 0.0 0.00 0.05 0.00 83 1009.6
20260509054519 39 0.0 0.0 0.00 0.05 0.00 82 1009.5
20260509053519 39 0.0 0.0 0.00 0.05 0.00 81 1009.7
20260509052519 39 0.0 0.0 0.00 0.05 0.00 81 1009.9
20260509051519 39 0.0 0.0 0.00 0.05 0.00 80 1009.9
20260509050519 39 0.0 0.0 0.00 0.05 0.00 80 1009.9
20260509045519 40 0.0 0.0 0.00 0.05 0.00 79 1010.0
20260509044519 40 0.0 0.0 0.00 0.05 0.00 78 1009.9
20260509043519 40 0.0 0.0 0.00 0.05 0.00 78 1010.2
20260509042539 40 0.0 0.0 0.00 0.06 0.00 78 1010.3
20260509041519 40 0.0 0.0 0.00 0.06 0.00 78 1010.3
20260509040519 41 0.0 0.0 0.00 0.06 0.00 78 1010.4
20260509035518 41 0.0 0.0 0.00 0.06 0.06 76 1010.4
20260509034518 41 0.0 0.0 0.00 0.06 0.06 75 1010.3
20260509033518 42 0.0 0.0 0.00 0.06 0.06 74 1010.3
20260509032518 42 0.0 0.0 0.00 0.06 0.06 74 1010.3
20260509031518 43 0.0 0.0 0.00 0.06 0.06 74 1010.4
20260509030518 43 0.0 0.0 0.00 0.06 0.06 72 1010.4
20260509025538 43 0.0 0.0 0.00 0.06 0.06 72 1010.5
20260509024558 44 0.0 0.0 0.00 0.06 0.06 72 1010.4
20260509023518 44 0.0 0.0 0.00 0.06 0.06 70 1010.4
20260509022539 45 0.0 0.0 0.00 0.06 0.06 70 1010.5
20260509021518 45 0.0 0.0 0.00 0.06 0.06 69 1010.4
20260509020522 46 0.0 0.0 0.00 0.06 0.06 68 1010.5
20260509015538 47 0.0 0.0 0.00 0.06 0.06 68 1010.4
20260509014518 47 0.0 0.0 0.00 0.06 0.06 67 1010.5
20260509013518 48 0.0 0.0 0.00 0.06 0.06 66 1010.4
20260509012518 49 0.0 0.0 0.00 0.06 0.06 64 1010.4
20260509011518 49 0.0 0.0 0.00 0.06 0.06 65 1010.3
20260509010518 50 0.0 0.0 0.00 0.06 0.06 64 1010.2
20260509005538 51 0.0 0.0 0.00 0.06 0.06 62 1009.9
20260509004518 52 0.0 0.0 0.00 0.06 0.06 61 1009.7
20260509003520 52 0.0 0.0 0.00 0.06 0.06 59 1009.6
20260509002520 53 0.0 0.0 0.00 0.06 0.06 58 1009.5
20260509001540 54 0.0 0.0 0.00 0.06 0.06 56 1009.5
20260509000520 54 0.0 0.0 0.00 0.06 0.06 54 1009.4
20260508235520 55 0.0 0.0 0.00 0.06 0.06 53 1009.5
20260508234520 55 0.0 0.0 0.00 0.06 0.06 54 1009.4
20260508233520 56 0.0 0.0 0.00 0.06 0.06 53 1009.3
20260508232520 56 0.0 0.0 0.00 0.06 0.06 51 1009.3
20260508231520 57 0.0 0.0 0.00 0.06 0.06 48 1009.3
20260508230540 57 0.0 0.0 0.00 0.06 0.06 48 1009.3
20260508225520 57 0.0 0.0 0.00 0.06 0.06 46 1009.3
20260508224520 57 0.0 2.0 0.00 0.06 0.06 46 1009.3
20260508223520 58 0.0 0.0 0.00 0.06 0.06 45 1009.3
20260508222519 58 23 1.0 4.0 0.00 0.06 0.06 44 1009.2
20260508221520 58 23 1.0 4.0 0.00 0.06 0.06 44 1009.3
20260508220520 57 0.0 0.0 0.00 0.06 0.06 44 1009.2
20260508215520 57 0.0 0.0 0.00 0.06 0.06 41 1009.3
20260508214520 58 0.0 1.0 0.00 0.06 0.06 44 1009.4
20260508213520 58 270 1.0 6.0 0.00 0.06 0.06 45 1009.5
20260508212520 58 0.0 2.0 0.00 0.06 0.06 47 1009.7
20260508211520 58 23 1.0 5.0 0.00 0.06 0.06 43 1009.7
20260508210540 58 0.0 2.0 0.00 0.06 0.06 47 1009.6
20260508205520 58 0.0 3.0 0.00 0.06 0.06 43 1009.7
20260508204520 59 23 3.0 9.0 0.00 0.06 0.06 50 1009.8
20260508203520 57 248 1.0 5.0 0.00 0.06 0.06 45 1010.0
20260508202540 57 315 1.0 7.0 0.00 0.06 0.06 47 1010.1
20260508201520 57 45 1.0 5.0 0.00 0.06 0.06 51 1010.2
20260508200540 59 0.0 0.0 0.00 0.06 0.06 38 1010.2
20260508195520 59 180 2.0 6.0 0.00 0.06 0.06 42 1010.4
20260508194520 60 225 1.0 4.0 0.00 0.06 0.06 40 1010.3
20260508193520 59 0.0 2.0 0.00 0.06 0.06 42 1010.5
20260508192528 58 203 1.0 4.0 0.00 0.06 0.06 46 1010.7
20260508191539 59 225 4.0 10.0 0.00 0.06 0.06 40 1010.7
20260508190520 59 180 1.0 5.0 0.00 0.06 0.06 48 1010.8
20260508185520 59 225 3.0 11.0 0.00 0.06 0.06 49 1010.9
20260508184519 58 225 1.0 4.0 0.00 0.06 0.06 48 1010.8
20260508183520 59 248 2.0 5.0 0.00 0.06 0.06 48 1010.9
20260508182520 60 68 1.0 5.0 0.00 0.06 0.06 54 1011.0
20260508181521 58 180 2.0 6.0 0.00 0.06 0.06 53 1011.1
20260508180520 57 180 2.0 6.0 0.00 0.06 0.06 52 1011.0
20260508175520 56 203 3.0 10.0 0.00 0.06 0.06 55 1011.2
20260508174520 56 158 2.0 5.0 0.00 0.06 0.06 53 1011.3
20260508173520 57 158 1.0 8.0 0.00 0.06 0.06 62 1011.5
20260508172540 56 248 1.0 4.0 0.00 0.06 0.06 57 1011.5
20260508171519 56 203 1.0 3.0 0.00 0.06 0.06 60 1011.6
20260508170520 56 180 2.0 6.0 0.00 0.06 0.06 58 1011.7
20260508165520 55 180 2.0 6.0 0.00 0.06 0.06 56 1011.8
20260508164520 55 180 2.0 7.0 0.00 0.06 0.06 62 1011.9
20260508163519 56 180 1.0 6.0 0.00 0.06 0.06 60 1012.1
20260508162520 54 225 1.0 5.0 0.00 0.06 0.06 62 1012.2
20260508161520 53 293 1.0 8.0 0.00 0.06 0.06 66 1012.2
20260508160520 53 225 1.0 5.0 0.00 0.06 0.06 65 1012.2
20260508155520 52 0.0 3.0 0.00 0.06 0.06 69 1012.4
20260508154520 52 225 2.0 5.0 0.00 0.06 0.06 67 1012.2
20260508153520 52 203 1.0 5.0 0.00 0.06 0.06 72 1012.2
20260508152520 51 158 2.0 7.0 0.00 0.06 0.06 69 1012.1
20260508151520 51 158 1.0 4.0 0.00 0.06 0.06 73 1012.1
20260508150520 49 0.0 3.0 0.00 0.06 0.06 78 1012.2
20260508145520 46 158 2.0 7.0 0.00 0.06 0.06 84 1012.1
20260508144519 46 0.0 3.0 0.00 0.06 0.06 88 1012.0
20260508143520 45 248 2.0 8.0 0.00 0.06 0.06 90 1012.1
20260508142519 44 135 3.0 8.0 0.00 0.06 0.06 90 1012.0
20260508141520 44 225 1.0 4.0 0.00 0.06 0.06 92 1012.1
20260508140520 44 0.0 0.0 0.00 0.06 0.06 92 1012.2
20260508135539 44 0.0 1.0 0.01 0.06 0.06 92 1012.3
20260508134519 43 0.0 1.0 0.02 0.06 0.06 92 1012.3
20260508133539 43 0.0 1.0 0.02 0.06 0.06 92 1012.3
20260508132519 43 0.0 0.0 0.04 0.06 0.06 92 1012.3
20260508131559 43 0.0 1.0 0.04 0.06 0.06 92 1012.3
20260508130520 43 0.0 0.0 0.05 0.06 0.06 92 1012.3
20260508125539 43 0.0 2.0 0.04 0.05 0.05 92 1012.2
20260508124520 43 0.0 0.0 0.03 0.04 0.04 92 1012.3
20260508123519 42 0.0 2.0 0.03 0.04 0.04 92 1012.1
20260508122520 42 0.0 0.0 0.01 0.02 0.02 91 1012.1
20260508121519 42 0.0 0.0 0.01 0.02 0.02 91 1011.9
20260508120520 41 0.0 0.0 0.00 0.01 0.01 90 1011.7
20260508115519 41 0.0 0.0 0.00 0.01 0.01 90 1011.4
20260508114541 41 0.0 0.0 0.00 0.01 0.01 90 1011.4
20260508113519 40 0.0 0.0 0.00 0.01 0.01 90 1011.3
20260508112519 40 0.0 0.0 0.00 0.01 0.01 90 1011.2
20260508111519 40 0.0 0.0 0.00 0.01 0.01 89 1011.1
20260508110519 40 0.0 0.0 0.00 0.01 0.01 89 1011.0
20260508105520 39 0.0 0.0 0.00 0.01 0.01 89 1010.8
20260508104519 39 0.0 0.0 0.00 0.01 0.01 89 1010.9
20260508103519 39 0.0 0.0 0.00 0.01 0.01 88 1010.8
20260508102519 39 0.0 0.0 0.00 0.01 0.01 88 1010.8
20260508101519 38 0.0 0.0 0.00 0.01 0.01 87 1010.8
20260508100540 38 0.0 0.0 0.00 0.01 0.01 87 1011.0
20260508095519 38 0.0 0.0 0.00 0.01 0.01 86 1011.1
20260508094519 38 0.0 0.0 0.00 0.01 0.01 86 1011.1
20260508093519 38 0.0 0.0 0.00 0.01 0.01 85 1011.2
20260508092519 38 0.0 0.0 0.00 0.01 0.01 85 1011.2
20260508091520 38 0.0 0.0 0.00 0.01 0.01 84 1011.3
20260508090519 38 0.0 0.0 0.00 0.01 0.01 83 1011.3
20260508085519 38 0.0 0.0 0.00 0.01 0.01 83 1011.2
20260508084519 39 0.0 0.0 0.00 0.01 0.01 83 1011.2
20260508083519 39 0.0 0.0 0.00 0.01 0.01 83 1011.1
20260508082520 39 0.0 0.0 0.00 0.01 0.01 82 1011.1
20260508081519 40 0.0 0.0 0.00 0.01 0.01 83 1011.0
20260508080519 40 0.0 0.0 0.00 0.01 0.01 83 1011.0
20260508075519 40 0.0 0.0 0.00 0.01 0.01 82 1011.1